Location: Tel Aviv
(32.0670°N, 34.7670°E)
Time: 10:25:34
(UTC+03:00)

Explorer 11/Cluster Stage 4 - Pass Details

Date: 15 September 2024
Orbit: 464 x 1208 km, 28.8° (Epoch: 06 October)

Event Time Altitude Azimuth Distance (km) Brightness Sun altitude
Rises 04:53:55 0° 204° (SSW) 3,225 - -19.8°
Exits shadow 04:56:14 - 191° (S) 2,641 9.0 -19.3°
Reaches altitude 10° 04:57:11 10° 183° (S) 2,456 8.9 -19.1°
Maximum altitude 05:00:44 16° 146° (SSE) 2,198 9.1 -18.4°
Drops below altitude 10° 05:04:41 10° 110° (ESE) 2,780 10.2 -17.6°
Sets 05:08:44 0° 92° (E) 3,877 11.6 -16.8°
